Location: Grums
(59.3529°N, 13.1129°E)
Time: 13:18:22
(UTC+02:00)

N. Korean satellite - Visible Passes

Search period start: 17 September 2021 00:00
Search period end: 27 September 2021 00:00
Orbit: 448 x 499 km, 97.3° (Epoch: 16 September)

Date Brightness Start Highest point End Pass type
(mag) Time Alt. Az. Time Alt. Az. Time Alt. Az.
18 Sep 9.6 05:37:29 10° NE 05:40:00 19° E 05:42:32 10° SE visible
19 Sep 10.1 05:10:59 10° ENE 05:11:57 11° E 05:12:56 10° E visible
21 Sep 9.3 05:47:15 10° NE 05:50:05 23° E 05:52:57 10° SSE visible
22 Sep 9.9 05:20:15 10° NE 05:22:04 13° E 05:23:54 10° ESE visible
24 Sep 8.9 05:57:01 10° NNE 06:00:07 28° E 06:03:13 10° SSE visible
25 Sep 9.7 05:29:46 10° NE 05:32:06 16° E 05:34:27 10° SE visible
